Total_Precipitation_Accumulation
0.01 0.02 0.06 0.20 0.38 0.51 0.53 0.50 0.56 0.67 0.71 0.71 0.69 0.79 0.87 0.87 1.35 2.54 1.87 1.15 0.91 0.74 0.55 0.49 0.55 0.52 0.44 0.39 0.42 0.43 0.43 0.46 0.45 0.38 0.37 0.44 0.48 0.54 0.68 0.77 1.01 1.30 1.49 1.67 1.72 1.88 1.81 1.78 1.81
0.01 0.03 0.08 0.20 0.42 0.55 0.55 0.51 0.65 0.74 0.75 0.67 0.63 0.68 0.75 0.85 0.84 1.00 1.16 0.88 0.70 0.69 0.68 0.53 0.55 0.54 0.44 0.40 0.43 0.47 0.45 0.43 0.42 0.38 0.37 0.41 0.50 0.58 0.68 0.75 0.92 1.36 1.64 1.72 1.68 1.78 1.81 1.79 1.83
0.02 0.06 0.11 0.20 0.38 0.47 0.57 0.56 0.66 0.77 0.77 0.69 0.75 0.87 1.01 0.97 0.96 0.93 0.95 0.78 0.64 0.62 0.63 0.65 0.58 0.56 0.51 0.49 0.50 0.51 0.49 0.44 0.45 0.46 0.45 0.51 0.58 0.59 0.68 0.82 0.93 1.21 1.55 1.77 1.78 1.72 1.79 1.74 1.69
0.03 0.06 0.12 0.19 0.26 0.28 0.33 0.45 0.58 0.75 0.81 0.70 0.75 1.07 1.16 0.90 0.91 0.87 0.86 0.75 0.61 0.67 0.66 0.67 0.65 0.66 0.65 0.61 0.60 0.58 0.52 0.50 0.52 0.53 0.55 0.60 0.67 0.72 0.77 0.99 1.21 1.33 1.54 1.63 1.61 1.61 1.70 1.61 1.49
0.05 0.09 0.15 0.21 0.23 0.23 0.23 0.35 0.56 0.68 0.75 0.70 0.75 1.07 1.40 1.19 0.95 0.87 0.78 0.64 0.59 0.73 0.87 0.73 0.70 0.73 0.75 0.76 0.71 0.69 0.63 0.62 0.62 0.62 0.64 0.67 0.75 0.85 0.88 1.09 1.42 1.63 1.74 1.69 1.60 1.51 1.47 1.35 1.31
0.06 0.10 0.19 0.25 0.22 0.20 0.22 0.25 0.43 0.68 0.77 0.81 0.87 1.26 1.80 1.70 1.25 0.92 0.88 0.74 0.70 0.77 0.84 0.80 0.76 0.78 0.80 0.86 0.91 0.88 0.80 0.76 0.74 0.77 0.75 0.68 0.68 0.78 0.96 1.17 1.43 1.68 1.78 1.71 1.56 1.50 1.39 1.31 1.40
0.08 0.11 0.18 0.25 0.23 0.21 0.23 0.27 0.42 0.59 0.72 0.81 0.86 1.37 1.78 1.71 1.46 1.18 1.07 0.93 0.88 0.87 0.99 1.00 1.05 1.04 1.08 1.17 1.16 1.10 1.02 0.98 0.91 0.86 0.80 0.75 0.73 0.82 0.97 1.23 1.47 1.69 1.78 1.66 1.52 1.47 1.43 1.45 1.56
0.08 0.10 0.12 0.18 0.19 0.23 0.26 0.31 0.41 0.52 0.73 0.76 0.89 1.33 1.77 1.80 1.64 1.68 1.67 1.51 1.36 1.35 1.44 1.48 1.54 1.49 1.40 1.33 1.29 1.23 1.16 1.12 1.04 0.92 0.86 0.87 0.91 1.03 1.20 1.23 1.46 1.72 1.85 1.72 1.63 1.60 1.53 1.58 1.66
0.08 0.09 0.13 0.14 0.16 0.23 0.29 0.37 0.42 0.51 0.67 0.93 0.93 1.07 1.49 1.67 1.79 1.93 2.05 1.93 1.98 2.03 2.02 1.89 1.87 1.80 1.77 1.62 1.40 1.47 1.39 1.34 1.27 1.18 1.11 1.18 1.28 1.48 1.59 1.46 1.74 1.97 2.02 1.93 1.92 1.89 1.81 1.80 1.82
0.11 0.13 0.14 0.11 0.13 0.21 0.29 0.36 0.38 0.53 0.72 1.07 1.14 1.20 1.47 1.70 2.11 2.33 2.26 2.20 2.29 2.57 2.45 2.16 2.23 2.21 2.10 1.94 1.91 1.92 1.76 1.77 1.77 1.78 1.56 1.69 2.08 2.19 1.90 2.12 2.30 2.61 2.54 2.28 2.25 2.17 1.98 1.85 1.87
0.11 0.14 0.11 0.14 0.20 0.25 0.32 0.40 0.45 0.59 0.96 1.25 1.39 1.57 1.71 2.00 2.29 2.53 2.57 2.56 2.58 2.64 2.44 2.50 2.70 2.57 2.60 2.80 2.82 2.58 2.46 2.49 2.36 2.39 2.23 2.33 2.36 2.27 2.31 2.53 2.70 3.01 3.08 2.90 2.74 2.43 2.07 2.03 2.17
0.10 0.11 0.13 0.19 0.26 0.30 0.38 0.49 0.62 0.69 0.97 1.29 1.41 1.78 2.15 2.46 2.56 2.71 2.83 2.76 3.01 2.98 2.67 2.72 2.75 2.78 2.90 3.05 3.24 3.28 3.06 3.04 2.91 2.87 2.68 2.79 2.88 2.92 2.92 3.16 3.34 3.64 3.88 3.89 3.42 2.94 2.75 2.50 2.38
0.07 0.09 0.15 0.25 0.32 0.35 0.47 0.63 0.69 0.79 0.93 1.16 1.44 1.72 1.86 2.16 2.56 3.19 3.24 3.41 3.65 3.52 3.23 3.11 3.24 3.07 3.03 3.33 3.59 3.49 3.54 3.43 3.55 3.55 3.22 3.29 3.29 3.33 3.59 3.69 4.02 4.10 4.25 4.29 3.97 3.35 3.08 2.92 2.68
0.08 0.12 0.20 0.26 0.34 0.44 0.54 0.67 0.70 0.89 1.10 1.21 1.34 1.59 1.89 2.11 2.32 2.86 3.35 3.56 3.80 3.91 3.77 3.57 3.49 3.42 3.33 3.56 3.91 4.06 3.90 3.87 3.84 3.98 3.78 3.68 3.72 3.87 3.99 4.07 4.36 4.29 4.11 4.25 4.09 3.58 3.30 3.09 2.97
0.09 0.16 0.27 0.30 0.32 0.39 0.46 0.72 0.73 0.83 1.15 1.40 1.44 1.58 1.91 2.31 2.59 2.98 3.38 3.78 4.08 4.12 3.94 3.92 3.66 3.89 4.02 4.27 4.34 4.49 4.64 4.57 4.38 4.30 4.35 4.22 4.29 4.45 4.34 4.53 4.71 4.54 4.29 4.33 4.25 4.04 3.64 3.39 3.31
0.15 0.26 0.41 0.39 0.35 0.33 0.48 0.91 0.96 0.93 1.22 1.40 1.59 1.80 2.03 2.34 2.70 3.06 3.36 3.64 3.99 4.09 4.14 4.27 3.99 4.09 4.39 4.47 4.54 4.80 5.16 5.22 4.98 4.75 4.73 4.62 4.78 4.94 5.03 4.92 4.82 4.68 4.48 4.44 4.57 4.31 3.93 3.80 3.78
0.20 0.30 0.41 0.44 0.38 0.38 0.51 0.87 0.96 0.96 1.19 1.32 1.41 1.62 1.85 2.16 2.55 2.92 3.31 3.64 3.90 4.05 4.07 4.30 4.52 4.39 4.64 4.79 4.89 5.16 5.48 5.66 5.48 5.25 5.07 5.08 5.09 5.03 5.21 5.26 5.19 4.97 4.83 4.77 4.43 4.37 4.20 4.15 4.05
0.23 0.24 0.33 0.38 0.36 0.38 0.50 0.74 0.92 0.96 1.22 1.29 1.49 1.51 1.71 2.06 2.46 2.83 3.29 3.72 3.90 4.17 4.30 4.42 4.76 4.81 5.11 5.25 5.12 5.34 5.53 5.59 5.54 5.49 5.43 5.55 5.61 5.41 5.45 5.38 5.32 5.23 5.20 5.10 4.91 4.78 4.67 4.37 4.19
0.21 0.20 0.28 0.35 0.36 0.42 0.57 0.83 1.06 1.15 1.28 1.40 1.63 1.74 2.03 2.19 2.45 2.82 3.27 3.68 4.24 4.45 4.55 4.55 4.71 5.02 5.18 5.31 5.36 5.77 5.82 5.65 5.85 6.09 5.98 6.11 6.15 5.88 5.81 5.69 5.60 5.40 5.26 5.17 5.07 4.91 4.74 4.39 4.20
0.23 0.20 0.30 0.42 0.48 0.56 0.68 0.90 1.13 1.27 1.27 1.57 1.88 1.98 2.48 2.65 2.59 2.82 3.42 3.81 4.21 4.50 4.67 4.93 5.05 5.11 5.24 5.69 6.15 6.58 6.95 6.90 6.79 6.97 7.02 6.78 6.64 6.52 6.27 6.30 6.04 5.70 5.48 5.20 4.96 4.80 4.55 4.16 4.11
0.22 0.27 0.37 0.52 0.52 0.64 0.83 1.31 1.46 1.41 1.48 1.73 2.04 2.24 2.63 2.77 2.92 2.90 3.10 3.47 3.89 4.26 4.53 4.77 5.08 5.46 6.01 6.67 7.14 7.42 7.81 7.97 7.71 7.43 7.28 7.02 6.79 6.58 6.25 6.06 5.99 5.73 5.20 4.97 4.78 4.51 4.39 4.18 4.02
0.18 0.21 0.30 0.38 0.49 0.74 0.86 1.63 1.83 1.72 1.81 1.92 2.16 2.28 2.57 2.48 2.72 2.95 3.02 3.23 3.56 3.84 4.21 4.66 5.06 5.68 6.60 7.30 7.75 8.17 8.34 8.37 8.20 7.90 7.45 7.06 6.64 6.21 5.86 5.63 5.39 5.18 4.86 4.68 4.30 4.17 4.19 4.20 3.97
0.11 0.14 0.21 0.26 0.39 0.63 0.77 1.42 1.88 1.84 2.05 2.13 2.35 2.43 2.46 2.50 2.51 2.66 2.74 2.92 3.27 3.61 3.98 4.44 4.90 5.63 6.38 7.02 7.65 8.19 8.37 8.34 8.06 7.61 7.05 6.54 6.08 5.61 5.16 4.91 4.67 4.43 4.22 4.02 3.73 3.65 3.70 3.80 3.75
0.10 0.16 0.26 0.34 0.56 0.90 0.75 1.20 1.98 2.18 2.31 2.40 2.38 2.49 2.73 2.67 2.52 2.51 2.55 2.68 2.92 3.28 3.66 4.15 4.59 5.11 5.73 6.20 6.81 7.27 7.49 7.42 7.00 6.43 5.81 5.42 5.18 4.91 4.59 4.30 4.07 3.75 3.54 3.35 3.20 3.07 3.02 3.15 3.24
0.13 0.29 0.69 0.89 1.01 1.06 0.77 1.28 2.18 2.37 2.30 2.39 2.55 2.72 2.86 2.87 2.69 2.61 2.62 2.62 2.77 3.05 3.47 3.82 4.00 4.41 4.69 5.03 5.53 5.91 5.98 5.87 5.55 5.26 5.01 4.61 4.17 3.81 3.67 3.48 3.29 3.05 2.94 2.88 2.88 2.83 2.76 2.80 2.86
0.16 0.28 0.76 1.16 1.09 1.06 1.14 1.89 2.56 2.48 2.28 2.23 2.36 2.47 2.55 2.49 2.44 2.44 2.46 2.59 2.73 2.79 3.03 3.27 3.26 3.44 3.67 3.88 4.12 4.26 4.31 4.33 4.30 4.19 3.85 3.50 3.10 2.77 2.75 2.77 2.56 2.48 2.49 2.45 2.56 2.55 2.53 2.59 2.58
0.18 0.26 0.36 0.64 0.75 1.15 1.72 2.34 2.82 2.57 2.51 2.37 2.15 2.00 2.19 2.29 2.29 2.34 2.41 2.56 2.65 2.61 2.58 2.66 2.71 2.76 2.86 2.95 3.11 3.22 3.28 3.43 3.42 3.32 3.13 2.87 2.67 2.41 2.30 2.29 2.27 2.27 2.34 2.33 2.35 2.32 2.22 2.34 2.37
0.17 0.24 0.38 0.68 1.23 1.58 1.93 2.59 3.21 3.17 3.07 2.96 2.59 2.19 2.23 2.31 2.40 2.41 2.36 2.35 2.45 2.34 2.30 2.41 2.50 2.48 2.48 2.41 2.41 2.36 2.54 2.68 2.74 2.65 2.47 2.44 2.42 2.32 2.27 2.18 2.13 2.10 2.05 2.06 2.20 2.16 2.08 2.10 2.11
0.22 0.29 0.42 0.72 0.99 1.58 2.29 3.00 2.93 3.20 3.28 3.12 2.73 2.32 2.29 2.33 2.41 2.43 2.46 2.32 2.26 2.25 2.26 2.19 2.22 2.21 2.14 2.10 2.15 2.06 2.05 2.08 2.09 1.97 1.89 1.94 1.97 2.02 2.00 1.86 1.83 1.78 1.73 1.77 1.92 1.97 1.97 1.96 1.94
0.28 0.33 0.45 0.94 1.08 1.23 2.04 3.03 2.84 3.16 3.32 3.12 2.95 2.65 2.44 2.52 2.50 2.40 2.45 2.43 2.26 2.09 2.07 2.04 2.03 2.03 2.01 1.98 1.98 1.85 1.76 1.77 1.80 1.77 1.69 1.67 1.72 1.72 1.72 1.67 1.55 1.46 1.52 1.67 1.72 1.68 1.71 1.79 1.77